[[{"header":{"parameterUnit":"m.s-1","parameterCategory":1,"la1":30.2991,"la2":30.254,"lo1":-89.0895,"lo2":-89.0444,"dy":0.0017,"dx":0.0017,"nx":28,"ny":28,"refTime":"2025-05-17T03:00:00:Z","depth":0,"parameterNumber":2,"parameterNumberName":"U-component_of_WINDS"},"data":[0,0,0,0,0,0,0,0,0,0,0,0,0,0,0,0,0,0,0,0,0,0,0,0,0,0,0,0,0,0,0,0,0,0,0,0,0,0,0,0,0,0,0,0,0,0,0,0,0,0,0,0,0,0,0,0,0,0,-0.4328,-0.4327,0,-0.4245,-0.4244,-0.4243,-0.4182,-0.4181,-0.418,-0.418,-0.409,-0.4088,-0.4086,0,0,0,0,0,0,0,0,0,0,0,0,0,-0.4429,-0.4427,-0.4328,-0.4327,-0.4326,-0.4245,-0.4244,-0.4243,-0.4182,-0.4181,-0.418,-0.418,-0.409,-0.4088,-0.4086,0,0,0,0,0,0,0,0,0,0,0,0,0,-0.4369,-0.4427,-0.4328,-0.4286,-0.4281,-0.4245,-0.4244,-0.4242,-0.4182,-0.4181,-0.418,-0.4179,-0.4091,-0.4088,-0.4085,-0.4083,0,0,-0.4077,-0.4075,0,0,0,0,0,0,0,0,-0.4373,-0.4365,-0.4293,-0.4289,-0.4284,-0.4223,-0.4246,-0.4189,-0.4182,-0.4219,-0.418,-0.4179,-0.4134,-0.4128,-0.4114,-0.4079,-0.4075,-0.4076,-0.4075,-0.4073,-0.4073,0,0,0,0,0,0,0,-0.4377,-0.4369,-0.4295,-0.4292,-0.4286,-0.4269,-0.426,-0.4235,-0.4182,-0.4216,-0.4211,-0.4203,-0.4131,-0.4117,-0.4111,-0.4074,-0.4076,-0.4074,-0.4072,-0.4071,-0.403,-0.4031,0,0,0,0,0,0,-0.4388,-0.4373,-0.4298,-0.4293,-0.4327,-0.4268,-0.4258,-0.4243,-0.4182,-0.4172,-0.4203,-0.42,-0.4122,-0.4115,-0.4108,-0.4099,-0.4073,-0.4071,-0.4069,-0.403,-0.403,-0.4031,0,0,0,0,0,0,-0.4391,-0.4382,-0.4301,-0.4331,-0.432,-0.4267,-0.4251,-0.4242,-0.4227,-0.4173,-0.4162,-0.4198,-0.4121,-0.4112,-0.4089,-0.4095,-0.4069,-0.4067,-0.4029,-0.403,-0.4031,-0.4084,0,0,0,0,0,0,-0.4394,-0.4383,-0.4384,-0.4332,-0.4318,-0.4286,-0.4252,-0.4241,-0.4223,-0.4218,-0.4165,-0.4156,-0.412,-0.4094,-0.4087,-0.4091,-0.4064,-0.4028,-0.4029,-0.403,-0.4081,-0.4087,-0.4091,0,0,0,0,0,-0.4398,-0.4401,-0.4384,-0.4375,-0.4318,-0.4287,-0.4279,-0.4239,-0.4224,-0.4222,-0.4187,-0.4157,-0.4096,-0.4092,-0.4083,-0.4087,-0.4027,-0.4029,-0.403,-0.4079,-0.4086,-0.4091,0,0,0,0,0,0,-0.4454,-0.4394,-0.4374,-0.4361,-0.433,-0.4277,-0.4274,-0.4247,-0.4218,-0.4214,-0.4164,-0.4153,-0.4135,-0.4109,-0.4106,-0.408,-0.4058,-0.4058,-0.4098,-0.4104,-0.4109,-0.4115,-0.4062,0,0,0,0,0,-0.4465,-0.4447,-0.4395,-0.4389,-0.4374,-0.4327,-0.4312,-0.4284,-0.4248,-0.4234,-0.4197,-0.4163,-0.4135,-0.4118,-0.409,-0.4078,-0.4064,-0.4075,-0.408,-0.4084,-0.4084,-0.4073,-0.4077,-0.4036,-0.4036,-0.4036,0,0,-0.4487,-0.4452,-0.4444,-0.4399,-0.4371,-0.4351,-0.4316,-0.4297,-0.4281,-0.4231,-0.4207,-0.4179,-0.4137,-0.4119,-0.4109,-0.4096,-0.4093,-0.4086,-0.409,-0.4087,-0.4075,-0.4079,-0.4082,-0.4037,-0.4037,-0.4036,0,0,-0.4518,-0.4491,-0.4482,-0.4455,-0.4414,-0.4382,-0.438,-0.433,-0.431,-0.4286,-0.4248,-0.4227,-0.4182,-0.4152,-0.4132,-0.415,-0.4121,-0.4142,-0.4167,-0.4156,-0.416,-0.4162,-0.4167,-0.4169,-0.4142,-0.4142,-0.4143,0,-0.455,-0.4521,-0.448,-0.4463,-0.4443,-0.4398,-0.4387,-0.4363,-0.4314,-0.43,-0.4287,-0.4228,-0.4197,-0.417,-0.4175,-0.416,-0.4154,-0.4147,-0.4163,-0.4165,-0.4167,-0.417,-0.4172,-0.4145,-0.4145,-0.4145,-0.4144,0,-0.4562,-0.4542,-0.4539,-0.4494,-0.4474,-0.4461,-0.4415,-0.44,-0.4373,-0.4342,-0.4317,-0.4278,-0.424,-0.4232,-0.4205,-0.4201,-0.4194,-0.4173,-0.4149,-0.4174,-0.4176,-0.4178,-0.4149,-0.4148,-0.4147,-0.4147,0,0,-0.4625,-0.4558,-0.4557,-0.4536,-0.4486,-0.4469,-0.4452,-0.4417,-0.4403,-0.4371,-0.4353,-0.4316,-0.4295,-0.4272,-0.4241,-0.4232,-0.4246,-0.4211,-0.421,-0.4218,-0.4236,-0.4252,-0.4254,-0.4227,-0.4228,-0.4228,-0.4239,0,-0.4647,-0.4616,-0.4578,-0.4559,-0.4538,-0.4495,-0.4479,-0.4446,-0.4417,-0.4393,-0.436,-0.4333,-0.4309,-0.4294,-0.4284,-0.4247,-0.4249,-0.4246,-0.4208,-0.4208,-0.4219,-0.4256,-0.4272,-0.4285,-0.424,-0.424,-0.424,0,-0.4668,-0.4638,-0.4618,-0.4569,-0.4559,-0.4546,-0.4509,-0.4489,-0.4449,-0.4428,-0.4401,-0.4369,-0.4346,-0.4326,-0.4293,-0.4291,-0.4273,-0.4253,-0.4252,-0.4246,-0.4225,-0.4248,-0.4288,-0.429,-0.4242,-0.4242,-0.4242,0,-0.4714,-0.4669,-0.465,-0.4633,-0.4576,-0.4568,-0.4543,-0.4504,-0.4484,-0.4451,-0.4438,-0.4403,-0.4383,-0.4355,-0.4313,-0.4303,-0.4283,-0.426,-0.4263,-0.4264,-0.4259,-0.426,-0.4295,-0.4251,-0.4251,-0.4251,-0.4251,0,-0.4741,-0.4729,-0.467,-0.4659,-0.4643,-0.4599,-0.4585,-0.4556,-0.4521,-0.4501,-0.4461,-0.4443,-0.4389,-0.4363,-0.433,-0.4306,-0.4298,-0.4278,-0.4269,-0.4281,-0.4283,-0.4267,-0.4265,-0.4251,-0.4251,-0.4251,-0.4251,0,-0.4789,-0.4749,-0.4726,-0.4674,-0.466,-0.4652,-0.4606,-0.4591,-0.456,-0.4535,-0.4526,-0.4476,-0.4444,-0.4399,-0.4353,-0.433,-0.431,-0.4297,-0.4324,-0.4318,-0.4323,-0.4322,-0.4348,-0.4348,-0.4306,-0.4306,-0.4307,0,-0.4808,-0.4798,-0.4746,-0.473,-0.4707,-0.4683,-0.4663,-0.4618,-0.4599,-0.4552,-0.4543,-0.4509,-0.4478,-0.4429,-0.4386,-0.435,-0.4334,-0.4346,-0.4328,-0.434,-0.4332,-0.4333,-0.433,-0.435,-0.435,-0.4351,-0.4351,0,-0.4846,-0.4826,-0.48,-0.4767,-0.4744,-0.4715,-0.4684,-0.4673,-0.4621,-0.4601,-0.4568,-0.4545,-0.4498,-0.4463,-0.4421,-0.4393,-0.4363,-0.4357,-0.4355,-0.4367,-0.4382,-0.4372,-0.4334,-0.4356,-0.4356,-0.4356,-0.4355,-0.4355,-0.4879,-0.4867,-0.4828,-0.4799,-0.4771,-0.4743,-0.4727,-0.4693,-0.4666,-0.4625,-0.46,-0.4568,-0.4526,-0.4467,-0.4441,-0.4413,-0.4401,-0.4399,-0.4398,-0.4398,-0.4401,-0.4388,-0.4406,-0.4405,-0.4405,-0.4405,-0.4405,0,-0.4912,-0.4885,-0.4859,-0.4817,-0.4794,-0.477,-0.4733,-0.4715,-0.4688,-0.4653,-0.4624,-0.4585,-0.4551,-0.4506,-0.4468,-0.4454,-0.4439,-0.4445,-0.4445,-0.4438,-0.4415,-0.442,-0.4458,-0.4458,-0.4458,-0.4458,-0.4458,-0.4458,-0.4927,-0.4906,-0.4882,-0.4845,-0.4817,-0.4787,-0.4768,-0.4741,-0.4712,-0.4672,-0.4643,-0.4615,-0.4574,-0.4533,-0.4499,-0.4486,-0.4473,-0.4483,-0.4466,-0.4445,-0.444,-0.4436,-0.444,-0.4481,-0.4481,-0.4491,-0.4491,-0.4491]},{"header":{"parameterUnit":"m.s-1","parameterCategory":1,"la1":30.2991,"la2":30.254,"lo1":-89.0895,"lo2":-89.0444,"dy":0.0017,"dx":0.0017,"nx":28,"ny":28,"refTime":"2025-05-17T03:00:00:Z","depth":0,"parameterNumber":3,"parameterNumberName":"V-component_of_WINDS"},"data":[0,0,0,0,0,0,0,0,0,0,0,0,0,0,0,0,0,0,0,0,0,0,0,0,0,0,0,0,0,0,0,0,0,0,0,0,0,0,0,0,0,0,0,0,0,0,0,0,0,0,0,0,0,0,0,0,0,0,4.529,4.529,0,4.5247,4.5247,4.5246,4.5247,4.5248,4.5249,4.5249,4.5201,4.52,4.5198,0,0,0,0,0,0,0,0,0,0,0,0,0,4.5372,4.537,4.5291,4.529,4.5289,4.5247,4.5247,4.5246,4.5247,4.5248,4.5249,4.5249,4.5202,4.52,4.5198,0,0,0,0,0,0,0,0,0,0,0,0,0,4.5333,4.537,4.5291,4.5285,4.5284,4.5247,4.5247,4.5246,4.5247,4.5248,4.5249,4.525,4.5203,4.52,4.5197,4.5162,0,0,4.5189,4.5188,0,0,0,0,0,0,0,0,4.5335,4.533,4.5286,4.5285,4.5284,4.5254,4.5258,4.5218,4.5247,4.5261,4.5249,4.525,4.5218,4.5214,4.5204,4.516,4.5158,4.5189,4.5187,4.5186,4.5185,0,0,0,0,0,0,0,4.5338,4.5332,4.5273,4.5286,4.5284,4.5284,4.5279,4.525,4.5235,4.526,4.526,4.5255,4.5217,4.5206,4.5202,4.5157,4.5189,4.5186,4.5185,4.5183,4.5084,4.5083,0,0,0,0,0,0,4.5342,4.5334,4.5275,4.5272,4.5313,4.5282,4.5277,4.5262,4.5235,4.5232,4.5254,4.5255,4.5211,4.5206,4.5201,4.5159,4.5186,4.5183,4.5182,4.5085,4.5084,4.5083,0,0,0,0,0,0,4.5344,4.5337,4.5276,4.5303,4.5295,4.5279,4.5263,4.5261,4.525,4.5231,4.5228,4.5246,4.5211,4.5205,4.5172,4.5158,4.5182,4.5179,4.5087,4.5085,4.5084,4.5075,0,0,0,0,0,0,4.5346,4.5338,4.5325,4.5303,4.5294,4.5249,4.5262,4.526,4.5246,4.5247,4.5222,4.5219,4.5211,4.5177,4.517,4.5154,4.5177,4.5088,4.5086,4.5084,4.5077,4.5074,4.5071,0,0,0,0,0,4.5349,4.5323,4.5324,4.5317,4.5278,4.5248,4.5243,4.5236,4.5245,4.5231,4.5219,4.522,4.516,4.5173,4.5166,4.5149,4.5089,4.5086,4.5084,4.5078,4.5074,4.5071,0,0,0,0,0,0,4.5341,4.532,4.5321,4.5287,4.527,4.5249,4.5232,4.5232,4.5211,4.5212,4.5203,4.5198,4.5166,4.5154,4.5169,4.5115,4.5126,4.5122,4.5123,4.512,4.5117,4.5121,4.5175,0,0,0,0,0,4.5336,4.5315,4.5297,4.5269,4.526,4.5247,4.5234,4.523,4.5212,4.5204,4.519,4.5171,4.5148,4.5133,4.5111,4.5075,4.507,4.506,4.5057,4.5055,4.5052,4.5033,4.5029,4.5076,4.5076,4.5076,0,0,4.5324,4.5309,4.5297,4.5267,4.5253,4.5231,4.5241,4.5217,4.5201,4.52,4.517,4.5158,4.5137,4.5103,4.5087,4.5092,4.5038,4.5052,4.505,4.5048,4.5031,4.5026,4.5022,4.5074,4.5075,4.5075,0,0,4.5291,4.5278,4.5254,4.5241,4.522,4.5212,4.5207,4.5186,4.5179,4.5148,4.5148,4.5128,4.5089,4.5074,4.5061,4.5025,4.5025,4.5018,4.5003,4.4985,4.4981,4.4978,4.4966,4.4962,4.5014,4.5014,4.5014,0,4.5278,4.5247,4.5241,4.5218,4.5205,4.5205,4.518,4.5167,4.514,4.5131,4.5137,4.5089,4.5074,4.5038,4.5029,4.5019,4.5012,4.502,4.4982,4.4979,4.4976,4.4964,4.496,4.5014,4.5014,4.5014,4.5014,0,4.5233,4.5211,4.5193,4.517,4.5155,4.513,4.5121,4.5106,4.5104,4.5095,4.5064,4.5047,4.5022,4.5013,4.5009,4.4976,4.498,4.4984,4.4995,4.4971,4.496,4.4955,4.5013,4.5013,4.5013,4.5013,0,0,4.5193,4.5168,4.5162,4.5152,4.513,4.5113,4.5089,4.5066,4.5054,4.5036,4.5016,4.4983,4.4988,4.4973,4.4968,4.4953,4.4927,4.4959,4.4958,4.4954,4.489,4.4888,4.4883,4.4927,4.4926,4.4925,4.4893,0,4.5159,4.5118,4.5113,4.5077,4.5057,4.5057,4.5037,4.5021,4.5012,4.4994,4.4984,4.4962,4.4968,4.496,4.4944,4.4933,4.4914,4.4935,4.4908,4.4907,4.4914,4.4877,4.4874,4.4844,4.4888,4.4887,4.4887,0,4.5113,4.5096,4.5058,4.5042,4.5033,4.5015,4.4994,4.4976,4.4959,4.4954,4.4939,4.4936,4.4911,4.4923,4.489,4.4904,4.4893,4.4886,4.4885,4.4882,4.4896,4.4875,4.4834,4.483,4.488,4.488,4.4881,0,4.509,4.5057,4.503,4.5021,4.5001,4.4988,4.4978,4.4962,4.4949,4.4931,4.4923,4.4901,4.4889,4.4873,4.4865,4.4874,4.4832,4.4843,4.4827,4.4827,4.4818,4.4819,4.4777,4.481,4.481,4.481,4.481,0,4.5053,4.503,4.502,4.5004,4.4978,4.4972,4.4947,4.4938,4.4923,4.4905,4.4903,4.4886,4.4876,4.4857,4.4851,4.4824,4.4819,4.4814,4.4813,4.4815,4.4815,4.4807,4.4809,4.4809,4.4809,4.4809,4.4809,0,4.5022,4.5014,4.4986,4.4969,4.4965,4.4947,4.4932,4.4916,4.4908,4.4885,4.488,4.4867,4.4845,4.4835,4.4808,4.4803,4.4774,4.4773,4.478,4.478,4.4765,4.4767,4.4717,4.471,4.4747,4.4746,4.4746,0,4.4999,4.4982,4.4964,4.4953,4.4943,4.4924,4.4912,4.4905,4.4892,4.4872,4.4859,4.4837,4.482,4.4785,4.4773,4.4752,4.4752,4.4736,4.4748,4.4752,4.4753,4.4754,4.4753,4.4733,4.4733,4.4733,4.4732,0,4.496,4.4957,4.494,4.4922,4.4908,4.4893,4.4878,4.4868,4.4859,4.4845,4.4823,4.481,4.4783,4.4762,4.4741,4.473,4.473,4.4729,4.4724,4.4726,4.4731,4.473,4.4775,4.473,4.473,4.473,4.473,4.473,4.4933,4.4918,4.4904,4.4885,4.4874,4.4861,4.4846,4.4837,4.4819,4.4798,4.4795,4.4772,4.4756,4.4728,4.4717,4.4699,4.4703,4.4696,4.4694,4.4693,4.4693,4.4734,4.4695,4.4695,4.4695,4.4695,4.4695,0,4.4894,4.4886,4.4869,4.4849,4.4835,4.4837,4.4821,4.4808,4.4789,4.4775,4.4758,4.4734,4.4714,4.4701,4.4681,4.4669,4.4668,4.4664,4.4665,4.4663,4.469,4.4696,4.4665,4.4665,4.4665,4.4665,4.4665,4.4665,4.4872,4.4849,4.4845,4.4815,4.4806,4.4785,4.4776,4.4764,4.4753,4.4727,4.4711,4.4703,4.4689,4.4668,4.465,4.4647,4.464,4.4635,4.4632,4.4657,4.4661,4.4664,4.467,4.4633,4.4633,4.4607,4.4607,4.4607]}]]